Meteorología y climatología de Navarra
Datos de la estación - Meteo Navarra

Estación de Irabia GN

Altitud 822 m.


Datos desde el 26/03/2020 hasta el 27/03/2020 en horario solar
Los datos son PROVISIONALES

Anterior Página 1 de 1 Siguiente Descargar: Formato para Excel 2000 o superior   Formato csv   Formato para OpenOffice Calc
Fecha Temperatura Humedad relativa Radiación global Insolación Precipitación Vel. viento 10 m Vel. viento 10 m Dir. viento 10 m
ºC % W/m² s l/m² m/s km/h º
26/03/2020 0:00 -0.4 95 - - - - 0.0 - - - - - -
26/03/2020 0:10 0.1 94 - - - - 0.0 - - - - - -
26/03/2020 0:20 0.2 92 - - - - 0.0 - - - - - -
26/03/2020 0:30 0.7 90 - - - - 0.0 - - - - - -
26/03/2020 0:40 0.8 89 - - - - 0.0 - - - - - -
26/03/2020 0:50 0.8 90 - - - - 0.0 - - - - - -
26/03/2020 1:00 0.9 90 - - - - 0.0 - - - - - -
26/03/2020 1:10 0.9 89 - - - - 0.0 - - - - - -
26/03/2020 1:20 1.0 89 - - - - 0.0 - - - - - -
26/03/2020 1:30 1.1 89 - - - - 0.0 - - - - - -
26/03/2020 1:40 1.1 89 - - - - 0.0 - - - - - -
26/03/2020 1:50 0.8 88 - - - - 0.0 - - - - - -
26/03/2020 2:00 0.7 91 - - - - 0.0 - - - - - -
26/03/2020 2:10 0.8 90 - - - - 0.0 - - - - - -
26/03/2020 2:20 0.8 91 - - - - 0.0 - - - - - -
26/03/2020 2:30 0.9 90 - - - - 0.0 - - - - - -
26/03/2020 2:40 0.9 90 - - - - 0.0 - - - - - -
26/03/2020 2:50 1.0 90 - - - - 0.0 - - - - - -
26/03/2020 3:00 1.2 90 - - - - 0.0 - - - - - -
26/03/2020 3:10 1.3 90 - - - - 0.0 - - - - - -
26/03/2020 3:20 1.4 89 - - - - 0.0 - - - - - -
26/03/2020 3:30 1.6 90 - - - - 0.0 - - - - - -
26/03/2020 3:40 2.4 91 - - - - 0.0 - - - - - -
26/03/2020 3:50 2.8 90 - - - - 0.0 - - - - - -
26/03/2020 4:00 3.7 87 - - - - 0.0 - - - - - -
26/03/2020 4:10 4.2 79 - - - - 0.0 - - - - - -
26/03/2020 4:20 4.4 74 - - - - 0.0 - - - - - -
26/03/2020 4:30 4.2 73 - - - - 0.0 - - - - - -
26/03/2020 4:40 4.1 74 - - - - 0.0 - - - - - -
26/03/2020 4:50 3.8 75 - - - - 0.0 - - - - - -
26/03/2020 5:00 3.7 74 - - - - 0.0 - - - - - -
26/03/2020 5:10 3.6 72 - - - - 0.0 - - - - - -
26/03/2020 5:20 3.6 72 - - - - 0.0 - - - - - -
26/03/2020 5:30 3.5 71 - - - - 0.0 - - - - - -
26/03/2020 5:40 3.5 71 - - - - 0.0 - - - - - -
26/03/2020 5:50 3.5 71 - - - - 0.0 - - - - - -
26/03/2020 6:00 3.5 73 - - - - 0.0 - - - - - -
26/03/2020 6:10 3.6 75 - - - - 0.0 - - - - - -
26/03/2020 6:20 3.5 75 - - - - 0.0 - - - - - -
26/03/2020 6:30 3.4 76 - - - - 0.0 - - - - - -
26/03/2020 6:40 3.3 76 - - - - 0.0 - - - - - -
26/03/2020 6:50 3.3 75 - - - - 0.0 - - - - - -
26/03/2020 7:00 3.3 76 - - - - 0.0 - - - - - -
26/03/2020 7:10 3.3 75 - - - - 0.0 - - - - - -
26/03/2020 7:20 3.3 71 - - - - 0.0 - - - - - -
26/03/2020 7:30 3.3 70 - - - - 0.0 - - - - - -
26/03/2020 7:40 3.4 69 - - - - 0.0 - - - - - -
26/03/2020 7:50 3.5 71 - - - - 0.0 - - - - - -
26/03/2020 8:00 3.3 74 - - - - 0.0 - - - - - -
26/03/2020 8:10 3.4 74 - - - - 0.0 - - - - - -
26/03/2020 8:20 3.3 72 - - - - 0.0 - - - - - -
26/03/2020 8:30 4.0 67 - - - - 0.0 - - - - - -
26/03/2020 8:40 4.0 60 - - - - 0.0 - - - - - -
26/03/2020 8:50 4.8 56 - - - - 0.0 - - - - - -
26/03/2020 9:00 5.1 54 - - - - 0.0 - - - - - -
26/03/2020 9:10 5.4 47 - - - - 0.0 - - - - - -
26/03/2020 9:20 5.9 47 - - - - 0.0 - - - - - -
26/03/2020 9:30 6.2 42 - - - - 0.0 - - - - - -
26/03/2020 9:40 6.4 43 - - - - 0.0 - - - - - -
26/03/2020 9:50 7.1 42 - - - - 0.0 - - - - - -
26/03/2020 10:00 6.8 40 - - - - 0.0 - - - - - -
26/03/2020 10:10 7.1 41 - - - - 0.0 - - - - - -
26/03/2020 10:20 6.6 42 - - - - 0.0 - - - - - -
26/03/2020 10:30 7.0 42 - - - - 0.0 - - - - - -
26/03/2020 10:40 6.9 43 - - - - 0.0 - - - - - -
26/03/2020 10:50 7.2 45 - - - - 0.0 - - - - - -
26/03/2020 11:00 6.8 45 - - - - 0.0 - - - - - -
26/03/2020 11:10 7.1 42 - - - - 0.0 - - - - - -
26/03/2020 11:20 7.5 40 - - - - 0.0 - - - - - -
26/03/2020 11:30 7.9 38 - - - - 0.0 - - - - - -
26/03/2020 11:40 7.5 37 - - - - 0.0 - - - - - -
26/03/2020 11:50 7.5 38 - - - - 0.0 - - - - - -
26/03/2020 12:00 7.7 37 - - - - 0.0 - - - - - -
26/03/2020 12:10 7.3 39 - - - - 0.0 - - - - - -
26/03/2020 12:20 8.5 38 - - - - 0.0 - - - - - -
26/03/2020 12:30 7.9 38 - - - - 0.0 - - - - - -
26/03/2020 12:40 7.7 38 - - - - 0.0 - - - - - -
26/03/2020 12:50 6.1 41 - - - - 0.0 - - - - - -
26/03/2020 13:00 6.8 40 - - - - 0.0 - - - - - -
26/03/2020 13:10 6.8 39 - - - - 0.0 - - - - - -
26/03/2020 13:20 7.1 40 - - - - 0.0 - - - - - -
26/03/2020 13:30 6.9 41 - - - - 0.0 - - - - - -
26/03/2020 13:40 7.3 39 - - - - 0.0 - - - - - -
26/03/2020 13:50 7.6 39 - - - - 0.0 - - - - - -
26/03/2020 14:00 7.9 38 - - - - 0.0 - - - - - -
26/03/2020 14:10 8.0 38 - - - - 0.0 - - - - - -
26/03/2020 14:20 7.6 37 - - - - 0.0 - - - - - -
26/03/2020 14:30 7.4 37 - - - - 0.0 - - - - - -
26/03/2020 14:40 7.2 38 - - - - 0.0 - - - - - -
26/03/2020 14:50 7.2 38 - - - - 0.0 - - - - - -
26/03/2020 15:00 7.4 39 - - - - 0.0 - - - - - -
26/03/2020 15:10 7.7 40 - - - - 0.0 - - - - - -
26/03/2020 15:20 7.6 41 - - - - 0.0 - - - - - -
26/03/2020 15:30 7.3 41 - - - - 0.0 - - - - - -
26/03/2020 15:40 6.7 44 - - - - 0.0 - - - - - -
26/03/2020 15:50 6.3 46 - - - - 0.0 - - - - - -
26/03/2020 16:00 6.0 47 - - - - 0.0 - - - - - -
26/03/2020 16:10 5.6 48 - - - - 0.0 - - - - - -
26/03/2020 16:20 5.3 49 - - - - 0.0 - - - - - -
26/03/2020 16:30 5.0 51 - - - - 0.0 - - - - - -
26/03/2020 16:40 4.8 52 - - - - 0.0 - - - - - -
26/03/2020 16:50 4.5 52 - - - - 0.0 - - - - - -
26/03/2020 17:00 4.3 53 - - - - 0.0 - - - - - -
26/03/2020 17:10 4.3 54 - - - - 0.0 - - - - - -
26/03/2020 17:20 4.4 55 - - - - 0.0 - - - - - -
26/03/2020 17:30 4.2 54 - - - - 0.0 - - - - - -
26/03/2020 17:40 4.0 55 - - - - 0.0 - - - - - -
26/03/2020 17:50 3.9 55 - - - - 0.0 - - - - - -
26/03/2020 18:00 3.9 56 - - - - 0.0 - - - - - -
26/03/2020 18:10 3.8 58 - - - - 0.0 - - - - - -
26/03/2020 18:20 3.7 58 - - - - 0.0 - - - - - -
26/03/2020 18:30 3.6 61 - - - - 0.0 - - - - - -
26/03/2020 18:40 3.4 60 - - - - 0.0 - - - - - -
26/03/2020 18:50 3.3 60 - - - - 0.0 - - - - - -
26/03/2020 19:00 3.4 61 - - - - 0.0 - - - - - -
26/03/2020 19:10 3.1 62 - - - - 0.0 - - - - - -
26/03/2020 19:20 3.0 63 - - - - 0.0 - - - - - -
26/03/2020 19:30 2.6 66 - - - - 0.0 - - - - - -
26/03/2020 19:40 2.4 66 - - - - 0.0 - - - - - -
26/03/2020 19:50 2.5 66 - - - - 0.0 - - - - - -
26/03/2020 20:00 2.6 66 - - - - 0.0 - - - - - -
26/03/2020 20:10 2.7 66 - - - - 0.0 - - - - - -
26/03/2020 20:20 2.7 66 - - - - 0.0 - - - - - -
26/03/2020 20:30 2.7 67 - - - - 0.0 - - - - - -
26/03/2020 20:40 2.7 67 - - - - 0.0 - - - - - -
26/03/2020 20:50 2.4 69 - - - - 0.0 - - - - - -
26/03/2020 21:00 2.2 71 - - - - 0.0 - - - - - -
26/03/2020 21:10 1.8 73 - - - - 0.0 - - - - - -
26/03/2020 21:20 1.8 74 - - - - 0.0 - - - - - -
26/03/2020 21:30 2.2 73 - - - - 0.0 - - - - - -
26/03/2020 21:40 2.2 73 - - - - 0.0 - - - - - -
26/03/2020 21:50 2.1 74 - - - - 0.0 - - - - - -
26/03/2020 22:00 1.7 76 - - - - 0.0 - - - - - -
26/03/2020 22:10 1.5 77 - - - - 0.0 - - - - - -
26/03/2020 22:20 1.4 78 - - - - 0.0 - - - - - -
26/03/2020 22:30 1.1 79 - - - - 0.0 - - - - - -
26/03/2020 22:40 0.8 80 - - - - 0.0 - - - - - -
26/03/2020 22:50 0.7 80 - - - - 0.0 - - - - - -
26/03/2020 23:00 0.3 84 - - - - 0.0 - - - - - -
26/03/2020 23:10 -0.1 85 - - - - 0.0 - - - - - -
26/03/2020 23:20 -0.4 87 - - - - 0.0 - - - - - -
26/03/2020 23:30 -0.7 88 - - - - 0.0 - - - - - -
26/03/2020 23:40 -0.8 89 - - - - 0.0 - - - - - -
26/03/2020 23:50 -1.1 89 - - - - 0.0 - - - - - -
Anterior Página 1 de 1 Siguiente

NOTA: Tipo de datos según el color:
   - Valores diarios o 10 minutos correctos
   - Valores diarios calculados a partir de un número de datos 10 minutos menor que 144 y mayor que 120, o de un número de datos semihorarios menor que 48 y mayor que 40 (caso de las estaciones de INTIA y del Ministerio)
   - Valores diez minutos estimados


Contacto        Enlaces        Aviso legal